Temp
12 13 12 13 13 11 12 15 19 17 17 20 21 20 20 19 19 18 16 16 17 17 17 16 17 16 16 16 17 17 16 16 16 15 16 16 16 16 16 16 17 17 17 17 17 16 15 15 15
12 13 12 13 12 11 12 16 18 18 20 19 19 18 18 17 18 16 16 16 17 17 16 16 16 16 16 16 17 17 15 15 16 16 16 16 16 16 16 17 17 17 17 17 16 16 15 15 15
12 12 12 10 10 14 14 16 18 20 20 19 19 18 18 16 17 16 16 16 17 17 16 16 16 16 16 16 16 17 16 15 16 16 16 16 16 17 17 18 18 17 17 17 16 16 16 16 15
11 10 11 11 11 13 16 18 18 18 21 19 20 17 17 16 16 17 16 16 17 17 16 16 16 16 15 15 15 16 17 16 16 16 16 16 17 18 18 18 18 18 17 17 17 16 16 16 16
10 10 12 11 12 14 16 19 19 18 18 19 18 17 16 16 17 18 17 16 17 16 16 16 16 15 15 15 15 15 16 17 17 17 18 18 18 18 18 18 18 18 18 18 17 16 16 15 15
10 10 12 12 12 15 17 19 19 19 18 17 18 17 15 17 18 18 18 16 17 16 16 16 16 15 15 15 15 15 16 17 18 18 18 18 18 18 18 18 18 18 18 17 17 16 16 15 16
11 11 10 12 12 14 17 20 18 18 18 18 20 16 15 16 16 18 17 16 16 16 16 16 15 15 16 16 15 15 15 17 17 18 18 18 18 18 18 18 17 17 17 17 17 16 16 15 15
9 10 11 11 13 15 17 17 20 18 16 18 19 15 15 17 17 17 16 16 16 16 16 15 15 15 16 16 16 15 15 16 17 18 18 18 18 18 18 18 17 17 17 17 16 16 16 16 15
9 10 12 12 15 16 17 16 17 18 17 16 18 17 17 17 17 16 15 15 15 15 15 15 15 15 16 16 16 15 15 15 16 17 18 18 18 18 18 18 17 17 17 17 16 16 16 15 15
9 10 12 11 13 15 16 17 17 17 16 14 16 17 17 16 18 17 16 15 15 15 15 15 15 15 16 16 17 16 16 16 17 17 18 18 18 18 17 17 17 17 17 17 16 16 16 15 15
9 11 11 11 12 14 16 16 17 16 16 16 15 15 15 15 16 17 17 15 15 16 15 15 15 15 16 16 17 16 16 16 17 18 18 18 18 17 17 17 17 17 17 16 16 16 16 16 15
8 10 11 10 12 13 13 16 15 16 18 19 17 19 16 15 16 17 19 15 15 17 16 15 15 15 16 16 17 17 17 17 17 18 18 18 18 17 17 17 17 17 17 16 16 16 16 15 15
6 8 10 10 12 12 14 12 14 14 17 17 18 18 17 16 17 16 17 15 16 16 16 16 15 15 16 16 17 17 17 17 17 17 17 17 17 17 16 16 16 16 16 16 15 15 15 15 15
7 8 9 10 11 11 11 13 15 14 15 16 17 17 17 18 17 17 17 17 16 16 16 16 16 16 16 16 17 17 17 17 17 17 17 17 16 16 16 16 15 15 15 15 15 15 15 14 14
8 7 9 10 10 11 10 13 11 13 14 15 17 18 18 18 17 17 16 16 17 16 17 16 16 15 16 16 16 17 17 17 17 17 17 17 16 16 16 15 15 15 14 14 15 15 14 14 14
9 7 7 10 10 11 11 12 12 13 14 13 14 16 17 17 17 17 17 17 16 16 17 17 16 16 16 16 16 16 16 16 16 16 16 16 15 15 15 15 15 14 14 14 14 14 14 14 14
9 8 7 8 10 10 11 11 11 12 13 13 14 14 16 17 17 16 17 17 17 17 16 16 16 16 16 15 16 16 16 16 16 16 15 15 15 15 15 14 14 14 14 14 13 13 13 14 14
8 8 8 8 9 9 9 10 11 12 12 12 13 14 14 16 16 17 16 16 16 16 16 16 16 16 16 16 15 15 15 15 15 15 15 15 15 15 15 14 14 14 14 13 13 13 13 13 13
10 10 10 10 10 10 9 9 10 11 12 12 13 14 15 15 17 17 16 16 15 16 16 16 16 16 16 15 15 15 15 15 15 15 15 15 15 15 15 15 14 14 14 14 14 13 13 13 14
10 9 9 10 10 10 10 10 10 10 11 12 13 14 15 15 16 17 17 16 16 16 16 15 16 16 16 16 16 15 15 15 15 15 15 16 15 15 15 15 14 14 14 14 14 14 13 13 13
10 10 9 10 10 10 10 10 10 11 11 12 12 13 14 15 16 17 17 17 17 17 16 16 16 16 16 16 15 15 15 15 15 15 15 15 16 15 15 15 14 14 13 14 15 14 15 15 15
10 11 11 10 9 9 10 10 9 11 11 11 12 13 15 15 16 17 17 17 17 17 17 17 17 16 16 16 15 15 16 16 16 16 15 15 15 15 15 14 14 14 14 13 14 14 15 14 15
10 11 10 9 9 9 9 9 9 10 10 11 12 13 14 15 16 16 17 17 17 17 17 17 17 17 17 16 16 16 15 16 16 16 16 15 14 14 14 14 14 14 13 13 13 13 14 13 14
11 9 8 7 8 8 8 9 9 9 10 11 12 14 15 16 17 17 17 17 17 17 17 16 16 16 16 16 16 16 16 16 15 15 15 15 15 15 14 14 14 13 13 13 13 13 13 13 15
9 7 8 8 8 7 7 9 9 11 10 10 11 14 16 16 17 17 17 17 17 17 17 16 16 16 15 15 15 15 15 15 15 15 15 15 15 15 15 13 12 13 13 13 13 13 13 13 14
7 7 6 8 7 7 8 9 9 11 12 12 14 15 15 16 16 17 17 17 17 17 17 16 16 16 15 15 15 15 15 15 15 15 15 15 14 14 14 13 12 11 13 14 14 14 13 12 12
8 5 7 7 5 4 7 8 9 11 11 12 12 13 13 14 15 15 16 17 17 16 16 16 16 16 15 15 15 15 15 15 15 15 15 14 14 13 13 12 12 12 12 12 13 13 12 11 11
8 7 7 6 7 7 7 7 9 12 11 11 10 12 13 14 15 15 16 17 17 16 16 16 15 14 14 14 14 14 14 13 14 14 14 14 13 12 12 12 12 12 12 12 12 12 11 11 10
7 6 8 7 7 5 7 7 7 9 11 10 9 12 12 13 14 15 15 16 15 15 16 16 15 14 14 14 14 14 14 14 13 12 12 12 12 11 12 12 12 12 11 11 11 11 10 10 10
7 8 8 7 6 4 3 7 9 7 7 9 9 11 12 13 13 13 14 14 13 14 14 14 14 14 14 13 13 13 13 13 12 12 12 12 13 12 11 11 11 11 11 11 11 10 10 9 9
Height
1495 1497 1501 1503 1511 1510 1509 1494 1482 1487 1491 1488 1487 1487 1489 1490 1493 1505 1495 1500 1506 1511 1517 1522 1526 1529 1529 1531 1533 1534 1536 1537 1539 1541 1542 1545 1547 1548 1550 1551 1551 1552 1552 1553 1554 1555 1556 1556 1557
1492 1494 1499 1498 1503 1513 1504 1485 1480 1480 1483 1485 1485 1486 1488 1491 1490 1493 1496 1502 1508 1513 1518 1523 1526 1529 1530 1533 1534 1535 1537 1539 1541 1542 1544 1546 1548 1550 1551 1551 1553 1554 1555 1556 1556 1557 1559 1559 1560
1488 1491 1494 1495 1499 1493 1494 1480 1474 1473 1480 1484 1486 1488 1488 1489 1491 1494 1498 1502 1509 1514 1519 1523 1527 1529 1531 1534 1535 1536 1538 1540 1543 1544 1546 1548 1549 1551 1552 1553 1554 1555 1557 1558 1559 1560 1561 1561 1562
1482 1482 1489 1488 1492 1481 1476 1472 1473 1476 1478 1482 1487 1491 1491 1489 1492 1494 1499 1503 1510 1515 1519 1523 1527 1530 1532 1534 1536 1538 1539 1541 1543 1546 1548 1549 1551 1552 1554 1555 1556 1557 1559 1560 1562 1563 1563 1563 1564
1477 1472 1476 1481 1482 1473 1470 1469 1470 1475 1478 1484 1488 1489 1491 1492 1493 1497 1500 1506 1511 1516 1520 1525 1528 1531 1533 1535 1538 1540 1541 1542 1544 1546 1548 1550 1552 1554 1556 1557 1559 1559 1561 1562 1564 1565 1566 1566 1567
1466 1468 1465 1473 1477 1468 1467 1468 1471 1474 1480 1487 1490 1486 1491 1494 1495 1498 1502 1509 1513 1518 1522 1526 1529 1531 1533 1536 1539 1541 1543 1544 1546 1547 1549 1551 1553 1555 1557 1559 1561 1562 1563 1565 1566 1567 1568 1568 1569
1469 1470 1469 1460 1469 1469 1464 1467 1470 1472 1478 1483 1480 1483 1492 1495 1497 1499 1504 1511 1515 1520 1524 1527 1531 1532 1534 1537 1539 1542 1544 1545 1547 1549 1551 1553 1555 1558 1559 1561 1563 1565 1565 1567 1568 1569 1570 1571 1571
1467 1467 1469 1464 1464 1467 1461 1466 1468 1471 1475 1476 1478 1482 1492 1494 1498 1501 1508 1512 1517 1522 1525 1528 1532 1533 1534 1537 1540 1542 1544 1546 1548 1550 1553 1555 1557 1559 1561 1563 1565 1567 1567 1569 1570 1570 1571 1572 1572
1465 1470 1464 1459 1456 1458 1460 1466 1465 1471 1472 1477 1480 1481 1482 1485 1498 1505 1511 1515 1520 1523 1526 1529 1533 1534 1536 1538 1540 1543 1545 1546 1549 1551 1554 1556 1558 1561 1563 1564 1566 1568 1569 1570 1571 1572 1572 1573 1573
1459 1462 1456 1457 1453 1454 1457 1460 1461 1471 1471 1476 1480 1479 1485 1489 1488 1500 1509 1516 1519 1524 1526 1530 1533 1536 1537 1538 1540 1543 1545 1546 1549 1552 1554 1556 1560 1562 1564 1565 1567 1568 1569 1570 1571 1572 1573 1573 1573
1462 1466 1454 1458 1454 1451 1456 1460 1464 1467 1474 1472 1475 1481 1487 1488 1493 1495 1498 1514 1521 1524 1525 1530 1533 1536 1538 1538 1539 1543 1545 1547 1549 1552 1555 1557 1559 1562 1564 1565 1567 1568 1569 1570 1571 1572 1572 1573 1573
1467 1454 1459 1460 1455 1451 1457 1461 1466 1469 1471 1471 1475 1481 1485 1490 1495 1495 1498 1517 1522 1521 1523 1529 1533 1536 1538 1539 1540 1543 1545 1547 1549 1551 1554 1556 1559 1561 1563 1565 1566 1567 1569 1570 1571 1571 1572 1573 1573
1475 1465 1457 1457 1454 1454 1460 1465 1467 1471 1469 1474 1477 1480 1482 1490 1496 1502 1502 1508 1512 1519 1520 1526 1532 1536 1537 1540 1540 1542 1544 1547 1549 1552 1554 1556 1559 1561 1563 1564 1565 1567 1568 1569 1570 1571 1572 1573 1573
1475 1465 1463 1462 1460 1462 1467 1468 1467 1475 1472 1474 1477 1480 1484 1488 1493 1501 1508 1509 1516 1522 1522 1525 1529 1534 1538 1539 1540 1541 1543 1545 1547 1550 1553 1556 1558 1560 1562 1564 1565 1566 1567 1568 1569 1570 1571 1571 1572
1474 1478 1465 1466 1466 1468 1468 1473 1478 1476 1475 1477 1480 1479 1487 1491 1497 1499 1505 1508 1513 1517 1525 1523 1527 1532 1535 1538 1538 1539 1542 1544 1546 1548 1552 1555 1557 1559 1560 1562 1564 1565 1567 1568 1568 1569 1569 1570 1571
1472 1474 1480 1474 1473 1474 1470 1482 1481 1479 1477 1478 1479 1482 1486 1491 1494 1498 1503 1506 1513 1517 1520 1520 1524 1528 1533 1535 1536 1537 1539 1542 1544 1547 1549 1552 1555 1557 1558 1560 1562 1564 1565 1566 1567 1567 1568 1568 1569
1474 1478 1483 1487 1479 1478 1480 1483 1482 1482 1479 1480 1482 1486 1490 1491 1495 1498 1504 1507 1510 1514 1517 1520 1522 1525 1528 1530 1534 1536 1538 1540 1543 1545 1547 1550 1552 1554 1556 1557 1560 1561 1562 1564 1565 1566 1567 1567 1568
1477 1476 1482 1487 1489 1488 1488 1486 1487 1483 1482 1481 1482 1486 1490 1492 1492 1495 1498 1503 1508 1510 1513 1518 1520 1520 1523 1527 1531 1535 1536 1538 1541 1544 1545 1548 1550 1553 1555 1556 1557 1558 1560 1562 1564 1565 1566 1566 1566
1469 1471 1475 1483 1480 1487 1490 1493 1491 1482 1482 1480 1479 1481 1485 1490 1493 1495 1497 1501 1504 1506 1510 1514 1518 1518 1522 1523 1526 1530 1532 1535 1538 1540 1543 1546 1548 1551 1553 1554 1555 1555 1557 1559 1561 1562 1563 1563 1564
1467 1474 1477 1479 1479 1489 1485 1488 1490 1489 1483 1479 1478 1477 1480 1485 1489 1492 1497 1501 1501 1503 1505 1509 1512 1516 1518 1520 1523 1526 1528 1532 1535 1538 1539 1542 1545 1547 1549 1551 1552 1553 1553 1555 1556 1557 1558 1559 1561
1468 1472 1474 1475 1481 1485 1483 1484 1482 1480 1479 1476 1476 1477 1476 1479 1482 1487 1491 1494 1497 1499 1502 1505 1507 1510 1514 1516 1519 1521 1524 1527 1531 1533 1534 1537 1540 1542 1544 1547 1548 1550 1550 1552 1552 1553 1553 1554 1555
1475 1470 1469 1475 1480 1487 1479 1486 1478 1474 1473 1474 1472 1473 1473 1474 1477 1481 1486 1489 1492 1495 1498 1500 1504 1508 1510 1511 1515 1517 1519 1522 1525 1527 1531 1533 1535 1537 1539 1541 1543 1545 1547 1549 1551 1552 1551 1551 1550
1472 1467 1471 1477 1482 1485 1487 1492 1474 1473 1473 1466 1465 1468 1469 1472 1473 1476 1481 1485 1489 1492 1494 1497 1500 1503 1507 1512 1513 1516 1517 1519 1522 1524 1526 1529 1531 1532 1534 1536 1538 1541 1543 1545 1549 1549 1549 1548 1547
1470 1475 1479 1482 1485 1489 1486 1490 1478 1475 1464 1462 1462 1462 1464 1465 1467 1472 1476 1480 1485 1488 1490 1494 1497 1501 1505 1509 1510 1512 1515 1517 1519 1520 1522 1525 1526 1527 1529 1532 1533 1536 1538 1540 1541 1547 1546 1543 1542
1473 1482 1487 1490 1487 1493 1484 1485 1468 1462 1461 1459 1456 1457 1458 1459 1462 1466 1472 1476 1480 1483 1486 1491 1494 1497 1500 1503 1505 1507 1510 1514 1515 1517 1518 1520 1521 1523 1525 1527 1531 1535 1537 1538 1540 1542 1542 1541 1539
1477 1480 1493 1489 1491 1490 1486 1481 1466 1451 1452 1454 1455 1453 1453 1452 1453 1461 1467 1471 1475 1479 1482 1486 1490 1492 1494 1498 1501 1502 1504 1508 1510 1512 1514 1515 1518 1519 1521 1525 1528 1534 1531 1531 1535 1536 1538 1536 1535
1477 1488 1481 1487 1496 1504 1482 1472 1459 1450 1450 1450 1451 1452 1452 1450 1452 1458 1462 1466 1470 1475 1478 1482 1485 1488 1490 1494 1496 1498 1500 1503 1505 1507 1508 1510 1514 1516 1519 1522 1522 1528 1529 1528 1528 1530 1530 1532 1531
1472 1473 1484 1489 1485 1485 1483 1479 1467 1452 1450 1450 1450 1449 1450 1450 1452 1454 1456 1460 1466 1471 1475 1478 1481 1484 1486 1489 1492 1493 1495 1498 1500 1501 1503 1506 1509 1512 1515 1517 1519 1523 1525 1525 1525 1526 1526 1526 1525
1473 1475 1473 1478 1480 1491 1481 1473 1455 1450 1447 1448 1448 1448 1450 1451 1452 1454 1456 1459 1461 1466 1471 1474 1477 1480 1482 1485 1488 1490 1492 1494 1496 1498 1499 1502 1506 1510 1513 1515 1517 1519 1520 1520 1519 1519 1520 1520 1519
1467 1465 1467 1472 1482 1491 1499 1473 1449 1450 1446 1446 1449 1450 1452 1455 1456 1457 1458 1459 1461 1464 1468 1472 1475 1478 1479 1481 1485 1487 1489 1492 1495 1497 1498 1500 1503 1505 1509 1513 1513 1513 1515 1515 1514 1514 1515 1514 1513
Wind_Speed
21 15 10 9 3 3 4 7 2 6 5 10 3 5 8 4 5 4 11 31 34 34 29 24 20 18 14 11 16 21 26 25 24 23 24 25 23 20 17 12 11 13 15 17 19 20 19 18 16
23 21 12 6 3 4 5 5 8 7 4 11 7 13 1 2 5 13 27 27 34 33 29 25 21 19 14 13 19 21 26 25 23 24 24 23 20 17 11 9 15 17 18 19 20 20 18 17 18
24 21 9 5 4 11 5 5 6 16 13 4 3 1 2 7 11 27 21 31 34 32 29 25 22 19 15 17 20 20 26 24 22 21 20 17 13 10 10 17 19 19 19 20 20 18 17 15 17
23 16 6 4 7 7 6 5 7 12 9 11 5 1 5 4 24 23 28 35 34 32 29 26 23 19 18 17 20 20 22 24 21 18 16 14 11 15 19 21 21 21 20 20 19 17 14 14 15
27 8 10 5 8 3 4 4 18 15 25 27 5 5 5 17 18 21 27 34 34 31 29 26 23 20 19 19 21 16 20 22 21 19 18 19 21 22 22 22 21 20 19 18 17 16 13 11 11
9 4 8 12 7 4 5 9 9 17 27 34 8 8 5 10 22 22 23 34 31 31 28 25 21 21 19 20 24 18 18 21 22 22 22 23 23 22 22 21 20 19 18 17 16 14 12 10 8
10 5 9 8 10 7 4 12 5 10 22 16 13 4 12 20 23 25 26 32 32 30 28 26 22 20 19 22 26 22 20 21 21 21 22 22 22 21 20 19 18 17 16 15 14 12 10 8 6
9 1 16 6 8 7 7 3 12 10 4 11 14 6 10 24 25 24 27 31 31 29 27 26 23 20 21 23 25 23 21 20 21 21 21 20 20 19 18 17 16 15 14 13 12 10 8 7 5
13 5 13 7 15 7 9 5 7 5 15 6 13 14 29 36 27 22 28 30 29 29 28 26 22 21 23 23 25 24 22 21 20 21 20 20 18 17 16 15 13 11 10 9 9 8 7 6 5
8 3 3 5 2 5 7 9 19 5 6 4 10 16 37 36 35 27 22 28 30 29 28 26 24 22 23 22 24 25 23 22 21 20 19 18 16 15 13 12 10 9 7 7 6 6 6 6 5
7 7 2 5 7 4 6 6 4 17 1 11 22 31 36 38 39 42 40 27 30 30 27 26 23 21 22 21 23 24 23 21 20 20 18 17 16 14 11 9 8 7 6 5 5 5 5 5 5
8 12 3 3 10 7 4 6 7 2 7 20 25 31 33 37 39 43 40 24 32 28 28 27 25 22 21 20 21 22 23 22 21 20 18 16 15 13 10 7 7 6 5 5 4 4 4 4 4
11 15 6 8 16 25 12 8 7 6 12 16 29 33 35 35 36 36 36 40 29 29 30 29 25 23 21 21 20 21 22 21 20 19 17 16 14 11 8 7 6 5 5 5 5 4 4 3 3
9 12 16 10 17 19 8 5 3 5 11 16 23 30 34 31 35 38 35 38 35 27 30 29 28 24 22 23 21 19 21 20 20 19 17 15 13 11 7 6 6 5 4 5 5 5 4 4 4
6 5 8 18 13 8 15 6 6 7 9 12 15 20 25 28 31 35 36 40 35 22 27 30 30 27 24 23 22 20 19 20 19 17 15 14 12 11 8 7 7 6 6 6 6 6 5 5 5
4 5 4 12 12 8 10 3 4 9 8 5 4 11 20 23 24 28 33 34 35 39 37 33 30 29 26 21 20 22 20 18 16 14 12 12 12 11 10 9 8 8 9 8 7 7 7 7 8
1 4 6 7 10 6 9 3 7 8 6 7 4 5 14 20 21 20 29 30 35 35 34 35 36 33 28 26 21 19 21 20 18 15 12 11 11 9 11 12 12 12 11 9 7 8 9 9 10
4 5 5 6 2 5 8 8 10 11 7 6 8 6 9 14 21 21 21 25 29 29 29 29 31 30 27 24 21 21 22 19 18 17 14 12 11 12 12 13 16 15 13 11 9 7 8 11 13
5 6 10 8 8 3 4 5 16 13 16 14 14 15 13 14 13 16 22 22 26 28 29 28 27 26 26 27 27 26 25 23 20 21 17 18 17 18 18 15 16 16 13 8 9 10 11 13 14
5 6 3 6 14 5 10 8 10 12 13 17 17 21 17 22 18 17 18 23 24 25 26 26 27 29 29 28 28 30 28 28 26 23 24 24 23 22 22 17 13 17 15 12 11 14 14 13 15
2 2 1 4 10 2 8 4 7 9 20 25 26 28 27 26 27 23 22 21 20 24 26 25 27 30 29 26 28 30 30 30 33 30 32 31 29 26 27 25 22 20 17 17 16 17 19 17 20
1 3 5 8 7 3 3 3 4 10 12 14 25 31 30 25 31 26 25 24 23 22 21 23 25 25 29 28 29 31 30 32 31 35 35 32 31 31 29 29 26 24 21 19 22 19 19 22 26
3 4 5 6 4 5 2 1 6 1 11 17 19 28 33 29 25 30 30 26 23 24 26 28 27 28 26 26 27 26 29 28 23 26 30 33 32 31 30 27 24 22 21 19 19 21 21 23 28
1 5 7 5 3 2 6 5 4 5 8 6 12 29 35 33 32 31 29 25 24 24 29 31 31 30 26 28 26 27 27 26 25 25 25 30 34 32 32 29 26 21 17 18 18 27 28 23 29
3 5 2 1 3 4 3 4 7 4 6 7 9 23 20 32 41 37 33 29 24 24 26 30 30 30 29 29 29 27 25 27 27 27 27 25 28 30 29 22 16 18 18 18 22 26 25 25 25
4 6 4 6 3 2 2 6 6 6 7 15 17 18 22 21 32 39 35 32 27 23 22 24 27 28 29 29 28 26 26 28 30 30 27 25 26 24 20 19 15 19 18 18 23 23 24 23 23
4 3 6 3 1 3 4 6 8 9 7 3 9 10 7 7 16 25 26 28 30 27 24 24 25 27 29 27 28 28 28 29 31 32 30 28 25 22 20 22 16 22 18 19 20 23 24 25 24
4 6 4 0 4 4 3 4 5 3 6 2 4 8 6 6 5 8 15 24 26 27 25 24 23 22 23 22 23 22 23 23 23 27 27 25 22 20 20 20 22 23 21 18 19 21 22 24 23
3 2 2 4 2 4 2 5 6 7 5 8 8 9 6 3 2 1 5 12 23 29 25 23 20 19 19 19 19 19 19 20 18 16 17 18 17 17 15 14 13 15 16 17 18 21 23 25 24
2 2 4 3 4 1 3 5 4 5 7 9 7 6 6 5 3 2 1 2 10 16 20 20 20 20 19 18 17 16 16 15 14 14 15 15 15 14 12 13 14 17 22 25 30 30 28 27 25
Wind_Direction
206 193 203 192 169 81 220 231 184 148 173 212 178 152 185 103 157 195 151 165 167 164 163 162 159 157 158 153 140 137 141 127 123 125 131 135 138 140 138 134 123 118 120 119 117 117 115 112 108
217 198 206 211 189 167 235 236 181 155 152 123 113 121 88 113 121 134 150 162 166 163 160 161 159 157 161 156 137 136 148 145 138 136 132 131 138 141 136 129 125 123 124 123 121 118 116 111 102
216 201 182 183 178 206 197 208 170 199 143 116 84 47 68 121 145 145 160 161 166 163 160 159 158 160 161 152 137 132 154 154 149 144 146 148 147 141 132 127 125 125 125 123 122 119 118 100 101
205 186 220 184 193 237 184 205 167 162 210 279 154 128 98 138 147 155 154 162 166 162 160 159 161 162 157 149 141 134 139 162 163 161 160 161 159 135 131 127 126 126 125 125 126 124 118 103 99
206 172 191 160 211 219 217 251 151 163 160 242 203 168 103 157 150 150 157 166 167 160 160 160 164 162 157 148 142 142 136 140 149 153 151 144 136 131 128 127 127 126 126 128 131 129 124 119 107
185 240 186 174 192 219 210 219 155 163 159 199 218 146 98 149 160 160 160 168 169 160 160 162 167 162 162 157 148 151 140 135 136 137 136 134 133 132 131 130 130 130 130 133 135 133 129 123 110
217 192 189 184 175 190 197 157 137 141 176 187 194 77 128 150 162 155 163 172 167 163 162 165 169 167 164 162 157 155 150 140 136 136 136 136 136 136 133 131 132 135 136 136 136 136 135 133 132
213 52 188 188 161 178 193 134 144 150 136 172 180 143 162 159 155 150 167 170 167 166 167 169 174 172 166 165 163 158 155 149 143 141 140 140 139 138 137 138 138 138 138 140 142 142 145 150 156
224 242 190 178 167 166 150 141 117 162 128 144 178 169 171 158 153 143 159 167 171 173 173 178 181 176 169 167 165 166 162 161 152 149 146 145 146 146 146 146 146 147 146 147 149 153 161 170 176
247 221 169 0 27 144 146 141 123 138 119 121 115 138 157 160 174 177 168 176 180 180 180 184 184 179 171 168 169 172 171 165 160 157 153 151 151 152 154 154 156 159 162 166 173 182 187 191 195
290 202 269 23 349 111 128 102 96 129 101 170 151 147 157 158 161 168 168 187 190 185 184 190 187 184 179 171 171 176 176 173 167 166 164 163 164 164 161 163 167 171 178 186 198 206 206 205 213
294 47 289 32 25 60 75 105 86 80 158 178 167 163 166 173 175 166 167 188 192 191 190 194 191 188 183 180 178 180 182 181 178 177 178 176 174 174 173 175 187 192 196 204 207 208 202 211 235
280 281 24 46 54 42 90 56 106 47 131 161 168 169 172 177 180 178 182 188 182 202 196 194 194 194 187 187 182 184 186 188 188 191 188 185 183 184 196 198 191 196 208 210 213 218 226 237 245
271 8 13 31 33 50 31 32 99 31 134 145 170 176 181 182 186 182 190 181 183 208 204 196 196 197 199 193 191 185 188 188 194 197 196 195 197 202 210 210 211 228 225 219 222 224 226 232 256
160 329 2 20 8 39 348 41 56 41 154 151 168 175 189 191 186 190 194 188 176 190 216 205 198 194 198 201 196 190 185 187 190 193 204 210 214 218 225 227 232 247 247 238 238 236 244 259 269
138 87 41 4 359 19 17 113 54 43 119 108 149 174 186 190 202 195 198 199 198 196 200 205 197 197 204 203 206 202 194 193 193 199 213 225 230 233 241 244 249 253 258 251 253 254 264 274 284
143 105 99 338 353 32 31 24 343 15 44 34 23 178 190 199 203 202 206 204 205 204 204 201 206 198 199 199 208 210 206 211 209 211 219 232 239 241 257 258 256 256 254 247 251 260 271 278 285
143 101 131 140 215 104 349 336 309 325 345 313 313 294 212 193 209 211 203 211 207 204 207 213 213 207 206 219 211 210 213 217 217 218 227 237 243 252 273 261 253 249 243 238 246 268 284 299 300
121 118 141 165 158 125 173 274 277 308 306 298 291 297 259 222 205 203 217 214 213 216 216 222 220 218 217 211 213 217 219 221 225 222 231 231 240 254 258 265 249 237 224 231 247 256 270 284 295
51 123 111 98 158 203 166 234 235 268 269 269 271 274 276 246 226 219 210 211 220 223 222 224 224 224 225 224 226 224 227 232 231 229 234 232 241 243 249 246 232 218 215 221 241 252 263 276 288
51 217 218 124 155 243 155 236 211 216 245 256 255 260 267 262 238 227 223 219 217 221 226 230 228 226 229 236 235 232 231 236 236 233 233 238 243 241 241 237 229 221 215 239 238 246 269 274 286
193 268 180 129 138 212 274 269 258 215 229 232 240 250 252 258 234 231 225 224 225 223 219 227 232 235 238 237 241 244 244 243 244 241 240 241 241 243 244 241 237 235 237 245 259 253 267 277 277
232 19 141 156 147 119 247 191 266 89 222 234 233 243 248 246 242 241 235 237 241 236 231 228 227 233 236 244 245 245 243 243 250 252 248 245 247 246 246 241 236 233 240 248 253 263 277 284 285
114 70 46 53 41 234 196 202 257 199 226 238 225 236 244 243 242 241 241 246 246 239 237 235 236 240 239 240 245 247 251 254 254 255 249 245 247 241 243 239 235 239 229 244 261 267 279 273 285
91 65 81 279 221 223 221 174 249 203 234 233 224 225 239 248 245 242 238 243 243 236 235 233 239 242 243 245 243 247 249 251 254 255 254 251 253 250 247 244 245 244 255 258 268 278 278 277 277
167 164 158 193 201 205 115 218 245 246 264 237 236 253 278 254 237 234 237 240 241 236 231 230 237 244 244 248 250 250 249 249 251 253 255 257 255 249 240 231 231 248 249 264 279 280 277 277 279
182 171 161 115 356 61 208 283 302 261 261 201 218 209 233 222 222 228 235 234 236 239 232 234 239 240 241 245 247 250 251 254 253 252 251 249 246 236 242 238 237 255 257 266 273 276 277 282 282
178 172 131 61 192 222 232 266 230 263 250 223 185 192 177 150 161 206 225 231 232 234 234 237 242 236 238 244 249 254 258 259 256 251 246 241 234 226 234 238 243 249 257 268 275 283 288 287 287
169 183 114 134 143 182 284 257 223 240 224 201 210 195 182 172 182 257 242 228 225 226 226 227 232 236 239 243 247 251 256 258 253 242 229 221 219 227 236 240 248 265 276 283 288 289 289 287 285
320 225 182 145 203 319 143 276 350 327 266 194 171 158 141 133 134 147 142 242 222 213 213 220 230 237 244 243 241 241 239 238 235 224 209 203 209 213 226 243 261 276 278 283 288 289 285 284 285